Regional Weather Roundup
Issued by NWS

Home | Current Version | Previous Version | Text Only | Print | Product List | Glossary On
Versions: 1 2 3 4 5 6 7 8 9 10 11 12 13 14 15 16 17 18 19 20 21 22 23 24 25 26 27 28 29 30 31 32 33 34 35 36 37 38 39 40 41 42 43 44 45 46 47 48 49 50
000
ASUS43 KDTX 240410
RWRMI
MICHIGAN HOURLY REGIONAL WEATHER ROUNDUP
NATIONAL WEATHER SERVICE DETROIT/PONTIAC MI
1100 PM EST SUN NOV 23 2014

NOTE: "FAIR" INDICATES FEW OR NO CLOUDS BELOW 12,000 FEET WITH NO
SIGNIFICANT WEATHER AND/OR OBSTRUCTION TO VISIBILITY.

MIZ047>049-052>055-059>063-066>070-074>076-081>083-240500-
SOUTHEAST LOWER MICHIGAN

CITY           SKY/WX    TMP DP  RH WIND       PRES   REMARKS
ADRIAN         RAIN      51  50  96 S15       29.25F FOG
ALMA           RAIN      48  48  98 E9        29.26F
ANN ARBOR      LGT RAIN  50  48  93 SE12G20   29.27F FOG
BAD AXE        LGT RAIN  48  46  95 SE15G22   29.38F
DETROIT CITY   RAIN      51  48  89 E12       29.31F FOG
DETROIT        RAIN      51  49  92 E12G20    29.30F FOG
FLINT          LGT RAIN  52  48  86 SE18G25   29.29F
GROSSE ILE     LGT RAIN  52  48  87 SE14G21   29.29F
HILLSDALE      RAIN      51  51 100 SE9       29.22F
HOWELL         LGT RAIN  50  49  97 SE15G23   29.26F

CITY           SKY/WX    TMP DP  RH WIND       PRES   REMARKS
JACKSON        LGT RAIN  49  48  97 SE13      29.23F
LAMBERTVILLE   RAIN      54  50  87 SE10G16   29.27F
LANSING        LGT RAIN  50  48  93 SE13G24   29.25F
LAPEER         NOT AVBL
MASON          HVY RAIN  49  48  94 SE13G22   29.24F
MONROE         RAIN      46  46 100 E9        29.27F
MT. CLEMENS    LGT RAIN  48  48 100 E17G24    29.31F FOG
PONTIAC        RAIN      48  46  93 E15       29.30F FOG
PORT HOPE        N/A     40  39  97 SE15      29.38F
PORT HURON     RAIN      48  48 100 SE16G23   29.38F
YPSILANTI      HVY RAIN  53  48  83 SE16G23   29.29F
$$
MIZ043>046-050>051-056>058-064>065-071>073-077>080-240500-
SOUTHWEST LOWER MICHIGAN

CITY           SKY/WX    TMP DP  RH WIND       PRES   REMARKS
BATTLE CREEK   LGT RAIN  52  48  86 SE9       29.21F
BENTON HARBOR  RAIN      49  48  97 SE9       29.17F FOG
BIG RAPIDS     MIX PCPN  47  47 100 E7        29.24F
COLDWATER      LGT RAIN  51  50  96 SE14      29.20F
HOLLAND        RAIN      51  49  92 E10       29.20F
GRAND RAPIDS   RAIN      49  47  93 E8        29.22F FOG
KALAMAZOO      LGT RAIN  50  48  93 SE8       29.20F FOG
MARSHALL       RAIN      49  48  95 SE10G16   29.20F
MUSKEGON       RAIN      50  48  93 E10       29.21F FOG
$$
MIZ016>042-240500-
NORTHERN LOWER MICHIGAN

CITY           SKY/WX    TMP DP  RH WIND       PRES   REMARKS
ALPENA         LGT RAIN  43  41  93 E8        29.40F FOG
BEAVER ISLAND  RAIN      47  46  97 SE7       29.32F
BELLAIRE       LGT RAIN  47  45  93 CALM      29.30F
CADILLAC       RAIN      46  45  97 E13       29.26F
CHARLEVOIX     LGT RAIN  44  44 100 E10       29.33F
FRANKFORT      LGT RAIN  47  46  97 SE6       29.25F
GAYLORD        LGT RAIN  42  42 100 SE9       29.33F FOG
GRAYLING       RAIN      47  47 100 E7        29.32F
HARBOR SPRINGS RAIN      43  43 100 NE9       29.34F
HOUGHTON LAKE  RAIN      46  45  96 E9        29.28F
MANISTEE       CLOUDY    46  45  93 E7        29.24F
OSCODA         RAIN      43  43  99 E7        29.38F
PELLSTON       LGT RAIN  43  42  97 SE8       29.36F VSB 1
TRAVERSE CITY  LGT RAIN  48  45  89 E5        29.27F
$$
MIZ007>008-015-240500-
EASTERN UPPER MICHIGAN

CITY           SKY/WX    TMP DP  RH WIND       PRES   REMARKS
KINROSS        CLOUDY    43  43 100 E10       29.38F
MACKINAC ISLAN LGT RAIN  45  45 100 SE8       29.36F
NEWBERRY       LGT RAIN  41  41 100 SE6       29.34F VSB 1/4
S. S. MARIE    RAIN      41  40  96 E9        29.40F FOG
$$
MIZ004>006-011>014-085-240500-
CENTRAL UPPER MICHIGAN

CITY           SKY/WX    TMP DP  RH WIND       PRES   REMARKS
MANISTIQUE     LGT RAIN  42  42 100 E8        29.31F VSB 1/2
ESCANABA       CLOUDY    41  39  93 CALM      29.28F VSB 3/4
MENOMINEE      CLOUDY    43  39  87 NE3       29.25F VSB 1/2
SAWYER-GWINN   LGT RAIN  39  38  97 S3        29.28F VSB 3/4
$$
MIZ001>003-009>011-084-240500-
WESTERN UPPER MICHIGAN

CITY           SKY/WX    TMP DP  RH WIND       PRES   REMARKS
IRON MOUNTAIN  LGT RAIN  40  39  97 CALM      29.25F VSB 1/2
HOUGHTON       FOG       40  38  93 E5        29.27F VSB 1/4
COPPER HARBOR    N/A     42  40  92 SW7       29.28F
IRONWOOD       CLOUDY    39  39 100 NW5       29.24F VSB 1/2
$$

ABBREVIATIONS USED IN REMARKS
   TC - TEMPERATURE IN CELSIUS
  WCI - WIND CHILL INDEX
   HX - HEAT INDEX
  VSB - VISIBILITY




USA.gov is the U.S. government's official web portal to all federal, state and local government web resources and services.